Location: Collonges
(46.1369°N, 6.1528°E)
Time: 17:04:33
(UTC+00:00)

Daily predictions for brighter satellites

Satellite Brightness Start Highest point End
(mag) Time Altitude Azimuth Time Altitude Azimuth Time Altitude Azimuth
Cosmos 2360 Rocket 4.0 17:13:27 10° ESE 17:14:49 11° E 17:16:11 10° E
AQUARIUS 4.5 17:13:01 10° S 17:17:29 74° WSW 17:21:58 10° NNW
DMSP B5D2-2 4.2 17:12:33 10° NNE 17:17:47 60° E 17:22:58 10° S
Cosmos 1607 3.9 17:12:15 10° SSW 17:18:19 71° ESE 17:24:29 10° NE
Meteor PRIRODA 3.5 17:15:04 10° SSE 17:18:37 88° ENE 17:22:11 10° NNW
Cosmos 1025 Rocket 4.0 17:16:09 10° SSW 17:20:17 49° WNW 17:24:28 10° N
YAOGAN 1 3.7 17:19:09 10° ESE 17:22:28 22° ENE 17:25:49 10° NNE
Cosmos 2322 Rocket 3.4 17:20:27 10° SE 17:24:26 20° E 17:28:25 10° NE
SL-4 R/B 2.1 17:21:31 10° W 17:24:54 51° NNW 17:28:15 11° ENE
COBE Rocket 4.4 17:20:47 10° S 17:25:32 63° W 17:30:12 10° NNW
Cosmos 1975 Rocket 4.3 17:24:09 10° SSW 17:28:26 45° WNW 17:32:44 10° N
Cosmos 1892 3.7 17:27:19 10° SE 17:30:22 24° E 17:33:27 10° NE
ATLAS CENTAUR R/B 1.7 17:26:17 10° SW 17:31:03 89° NW 17:35:38 10° NE
Cosmos 1703 3.8 17:28:07 10° SSW 17:31:54 60° WNW 17:35:41 10° N
Cosmos 1536 Rocket 3.6 17:28:03 10° S 17:32:16 55° E 17:36:31 10° NNE
Cosmos 407 Rocket 3.5 17:27:43 10° S 17:32:47 60° ESE 17:37:51 10° NNE
NOSS 2-1 (E) 4.0 17:29:02 10° NW 17:33:29 90° NE 17:39:45 10° SE
Cosmos 1340 Rocket 2.7 17:30:38 10° S 17:34:26 62° E 17:38:18 10° NNE
SL-16 R/B 2.8 17:31:26 10° S 17:36:33 36° ESE 17:41:41 10° NE
PAYLOAD B 4.4 17:35:11 10° SE 17:40:27 48° ENE 17:45:43 10° N
Cosmos 1606 Rocket 4.1 17:42:00 10° N 17:45:59 35° ENE 17:49:56 10° SE
Lacrosse 5 2.9 17:42:42 10° S 17:47:03 29° SE 17:49:51 18° E
Cosmos 2369 4.5 17:42:59 10° SW 17:48:31 53° WNW 17:54:05 10° NNE
Cosmos 1190 Rocket 4.2 17:44:27 10° S 17:49:36 54° ESE 17:54:47 10° NNE
Cosmos 1140 Rocket 3.5 17:44:44 10° SSW 17:49:55 83° WNW 17:55:07 10° NNE
BlueWalker 3 2.9 17:46:19 10° W 17:50:00 40° NNW 17:52:39 17° NE
Cosmos 1825 3.1 17:47:54 10° SSE 17:51:00 26° E 17:52:39 19° NE
Cosmos 1408 2.2 17:48:22 10° S 17:51:44 72° E 17:55:09 10° NNE
Cosmos 1655 Rocket 4.1 17:46:09 10° N 17:52:27 83° W 17:58:40 10° S
Cosmos 1980 Rocket 3.1 17:47:06 10° SW 17:52:35 49° WNW 17:58:08 10° NNE
ATLAS 5 CENTAUR R/B 4.0 17:54:17 10° NW 17:55:55 12° NNW 17:57:38 10° N
COSMO-SKYMED 1 2.6 17:52:08 10° NNE 17:56:30 86° WNW 18:00:51 10° SSW
Cosmos 2228 2.9 17:56:03 10° N 18:00:19 87° E 18:04:32 10° S
Cosmos 1633 3.9 18:02:29 10° SSE 18:04:00 20° SE 18:04:00 20° SE
MOS 1-B 4.3 18:00:28 10° SSE 18:06:08 60° ENE 18:11:51 10° N
USA 102 4.4 18:00:21 14° ESE 18:07:08 45° ENE 18:09:00 30° NNE
Cosmos 2263 Rocket 3.4 18:03:17 10° NW 18:08:33 44° WSW 18:13:46 10° S
CZ-4 R/B 1.8 18:06:17 10° SE 18:10:09 39° ENE 18:13:59 10° N
PSLV R/B 3.5 18:11:54 10° SSE 18:15:32 83° ENE 18:19:14 10° NNW
Okean O Rocket 1.8 18:13:11 10° SE 18:17:21 45° ENE 18:21:33 10° N
Meteor 1-11 4.2 18:12:14 10° S 18:18:00 72° E 18:23:48 10° NNE
Cosmos 1726 Rocket 3.5 18:15:10 10° N 18:19:28 59° E 18:23:42 10° SSE
Lacrosse 5 rocket 2.4 18:19:04 10° NNW 18:21:53 24° NNE 18:21:53 24° NNE
ISS -3.7 18:19:28 10° WNW 18:22:50 73° SSW 18:23:39 47° SE
Cosmos 468 Rocket 3.9 18:17:43 10° NNW 18:22:53 62° ENE 18:27:46 11° SSE
RESURS DK-1 3.2 18:22:48 10° NNW 18:25:55 32° NNE 18:25:55 32° NNE
Cosmos 1954 Rocket 3.9 18:23:25 10° SSW 18:28:40 79° ESE 18:32:56 16° NNE
Cosmos 1553 Rocket 3.9 18:25:11 10° S 18:31:07 59° E 18:37:08 10° NNE
COSMOS 2455 4.4 18:29:43 10° WSW 18:35:00 31° NW 18:40:19 10° NNE
IRIDIUM 104 4.2 18:30:17 10° N 18:35:30 67° E 18:40:41 10° SSE
CZ-4B R/B 3.1 18:30:52 10° SSE 18:36:12 87° WSW 18:41:39 10° NNW
SL-08 R/B 4.4 18:33:05 10° N 18:39:19 72° E 18:45:36 10° SSE
Cosmos 1844 Rocket 2.5 18:34:57 10° NNW 18:40:33 75° ENE 18:43:47 26° SE
IRIDIUM 114 4.2 18:39:23 10° N 18:44:39 80° E 18:49:52 10° S
Feng Yun 1-1 Rocket 4.1 18:39:23 10° SSE 18:44:59 75° ENE 18:50:28 10° NNW
Cosmos 1763 Rocket 3.7 18:40:05 10° NNW 18:45:16 71° WSW 18:50:20 10° S
Cosmos 1844 3.6 18:41:03 10° NNW 18:46:53 73° ENE 18:49:24 35° SE
Spot 1 3.8 18:47:34 76° SE 18:47:34 76° SE 18:51:30 10° S
Cosmos 2058 Rocket 3.1 18:44:30 10° N 18:48:18 60° NNE 18:48:18 60° NNE
IRIDIUM 103 4.3 18:48:34 10° N 18:53:49 86° W 18:59:02 10° S
Cosmos 841 Rocket 3.6 18:49:48 10° NNW 18:54:41 56° NE 18:54:41 56° NE
Cosmos 2333 Rocket 2.6 18:50:11 10° S 18:54:33 43° SE 18:54:33 43° SE
ATLAS 2AS CENTAUR R/B 2.9 18:49:43 10° NW 18:56:41 70° WSW 19:01:41 18° SSE
Cosmos 2360 Rocket 2.0 18:52:10 10° SSW 18:57:46 75° ESE 18:59:03 53° NE
YAOGAN 1 3.9 18:54:15 10° SSW 18:58:18 40° W 19:02:24 10° NNW
Cosmos 2219 Rocket 3.9 18:54:53 10° S 18:56:23 18° SSE 18:56:23 18° SSE
Cosmos 2278 Rocket 4.1 18:59:33 10° N 19:01:28 16° NNE 19:01:28 16° NNE
S3M 3.9 18:58:19 10° S 19:04:36 64° E 19:10:55 10° NNE
SL-4 R/B 3.4 19:01:23 10° WNW 19:03:35 27° NW 19:03:35 27° NW
Cosmos 2322 Rocket 2.4 19:02:21 10° SW 19:07:54 66° WNW 19:10:36 31° NNE
Cosmos 540 Rocket 3.6 19:03:04 10° NNW 19:08:13 69° WSW 19:10:12 37° S
ATLAS CENTAUR R/B 3.8 19:06:50 10° W 19:10:10 19° NW 19:12:01 15° N
Cosmos 1461 3.8 19:12:04 10° SW 19:15:08 47° SW 19:15:08 47° SW
SL-16 R/B 3.4 19:15:18 10° WSW 19:20:36 40° NW 19:24:12 19° N
Gblst 52 Del rocket 4.4 19:23:20 10° W 19:28:33 61° NNW 19:28:33 61° NNW
CSL-04 Debris 4.2 19:29:17 73° W 19:29:17 73° W 19:34:36 10° NNW
BlueWalker 3 4.4 19:25:54 10° WNW 19:27:27 19° NW 19:27:27 19° NW
Lacrosse 5 2.4 19:24:41 10° WSW 19:29:05 57° WNW 19:29:05 57° WNW
CSL-04 Rocket 4.3 19:39:31 51° NW 19:39:31 51° NW 19:43:38 10° NNW
BREEZE-M DEB (TANK) 4.4 19:12:21 10° WNW 19:44:59 89° SSW 19:47:04 64° ESE
CZ-4 R/B 4.0 19:42:06 10° SW 19:45:10 20° W 19:48:13 10° NW
BREEZE-M DEB (TANK) 3.7 19:36:05 10° WSW 19:45:22 60° WSW 19:45:22 60° WSW
Okean O Rocket 4.1 19:50:42 10° SW 19:53:54 20° W 19:57:08 10° NW
BREEZE-M DEB (TANK) 4.0 19:53:33 10° W 19:57:31 67° SW 19:57:31 67° SW
Cosmos 2360 Rocket 4.4 20:38:01 10° W 20:40:54 20° WNW 20:40:54 20° WNW
